{"data":{"norad_id":60405,"intl_designator":"2024-141H","name":"STARLINK-11081 [DTC]","alt_names":[],"object_type":"PAYLOAD","status":"ACTIVE","operator":null,"country":"US","launch_date":"2024-08-10","launch_site_code":"AFETR","launch_vehicle":null,"mission":null,"orbit_class":"UNKNOWN","rcs_meters":null,"size_class":null,"mass_kg":null,"dimensions":null,"purposes":["comms"],"wikipedia_slug":null,"has_3d_model":false,"image_url":null,"decayed_at":null,"tle_current":{"epoch":"2026-09-21T02:47:50.897184Z","epoch_age_seconds":132326,"freshness":"FRESH","line1":"1 60405U 24141H   26264.11656131  .00000130  00000+0  59372-5 0  9995","line2":"2 60405  53.1619 203.1157 0001262  84.4088 275.7074 15.69710615122383","mean_motion":15.69710615,"eccentricity":0.0001262,"inclination_deg":53.1619,"raan_deg":203.1157,"arg_perigee_deg":84.4088,"mean_anomaly_deg":275.7074,"bstar":5.9372e-6,"rev_number":12238,"period_min":91.736654274966,"perigee_km":358.87467234256,"apogee_km":360.57530870897,"semimajor_km":6737.8619905258,"source":"CELESTRAK","updated_at":"2026-09-22T09:00:49.230141Z"}}}